Tracking 23762 objects as of 22-Oct-2021
HD Live streaming from Space Station
objects crossing your sky now

SL-8 DEB *

Track SL-8 DEB * now!
10-day predictions


NORAD ID: 14802
Int'l Code: 1977-059C
Perigee: 684.9 km
Apogee: 697.3 km
Inclination: 74.1 °
Period: 98.4 minutes
Semi major axis: 7062 km
RCS: 0.0066 m2 (small)
Launch date: July 1, 1977
Source: Commonwealth of Independent States (former USSR) (CIS)
Launch site: PLESETSK MISSILE AND SPACE COMPLEX (PKMTR)

Note: This is SATELLITE DEBRIS
aabbcc
Your satellite tracking list
Your tracking list is empty




NASA's NSSDC Master Catalog

Two Line Element Set (TLE):
1 14802U 77059C   21294.91968313  .00000531  00000-0  10980-3 0  9991
2 14802  74.0543 257.7613 0008807  94.4160 330.1551 14.62854930117513
Source of the keplerian elements: AFSPC